This is the latest recevied weather packets stored in our database for station/object KA1ROH. If no packets are shown the sender has not sent any weather packets the latest 10 day(s).
| Time | Temp. | Humidity | Pressure | Rain* | Wind** | Luminosity | Snow |
|---|---|---|---|---|---|---|---|
| 1778182208 | 11.11° C | 55% | 1007.8 hPa | 0 mm | - | - | - |
| 1778179805 | 11.11° C | 54% | 1007.8 hPa | 0 mm | - | - | - |
| 1778178573 | 11.11° C | 54% | 1007.8 hPa | 0 mm | - | - | - |
| 1778177372 | 10.56° C | 55% | 1007.8 hPa | 0 mm | - | - | - |
| 1778176139 | 10.56° C | 52% | 1007.8 hPa | 0 mm | - | - | - |
| 1778171303 | 10.56° C | 51% | 1008.1 hPa | 0 mm | - | - | - |
| 1778166404 | 8.89° C | 58% | 1009.1 hPa | 0 mm | - | - | - |
| 1778165203 | 8.89° C | 60% | 1008.8 hPa | 0 mm | - | - | - |
| 1778159196 | 7.22° C | 67% | 1009.1 hPa | 0 mm | - | - | - |
| 1778157995 | 7.22° C | 69% | 1009.1 hPa | 0 mm | - | - | - |
| 1778156794 | 7.22° C | 70% | 1009.1 hPa | 0 mm | - | - | - |
| 1778155593 | 7.22° C | 72% | 1009.1 hPa | 0 mm | - | - | - |
| 1778151927 | 6.67° C | 79% | 1008.5 hPa | 0 mm | - | - | - |
| 1778150726 | 6.67° C | 98% | 1008.5 hPa | 0 mm | - | - | - |
| 1778142854 | 6.11° C | 98% | 1007.8 hPa | 0 mm | - | - | - |
| 1778142253 | 6.11° C | 98% | 1007.8 hPa | 0 mm | - | - | - |
| 1778134352 | 6.11° C | 98% | 1007.8 hPa | 0 mm | - | - | - |
| 1778133150 | 6.11° C | 98% | 1008.1 hPa | 0 mm | - | - | - |
| 1778130747 | 6.11° C | 98% | 1008.5 hPa | 0 mm | - | - | - |
| 1778128344 | 6.11° C | 97% | 1008.8 hPa | 0 mm | - | - | - |
| 1778126542 | 6.11° C | 97% | 1008.8 hPa | 0 mm | - | - | - |
| 1778118640 | 6.67° C | 96% | 1008.8 hPa | 0 mm | - | - | - |
| 1778116807 | 7.22° C | 95% | 1009.1 hPa | 0 mm | - | - | - |
| 1778114373 | 7.78° C | 93% | 1009.1 hPa | 0 mm | - | - | - |
| 1778112571 | 7.78° C | 93% | 1008.8 hPa | 0.25 mm | - | - | - |
* Rain latest hour (hover to see other rain measurements)
** Current wind speed in m/s (hover to see current wind gust speed)